Airfield :
LOGIN :

Register | Disclaimer

   EN    FR    IT 

 










Legend :    VFR   Marginal VFR   IFR   Intensive IFR   Very Intensive IFR
Visi :
Ceiling :
>= 8 km
>= 3000ft
5 to 8 km
1000 to 3000 ft
1500m to 5 km
500 to 1000 ft
800 to 1500m
200 to 500 ft
< 800m
< 200 ft
Symbols :   Thunderstorms  Fog  Heavy snow  Heavy precipitations  Wind > 20 kt
SIGMETs :     Misc.  Thunderstorms  Icing  Turbulence  Mountain Waves  Volcanic Ashes







- Airport Elevation : 1345 ft
- IATA code : FRZ


ETHF - Fritzlar

CURRENT METAR :
  • 211920Z 08005KT 8000 BKN012 02/M00 Q1020 GRN GRN

EXPIRED METARs :
  • 211820Z 09004KT 8000 OVC010 02/M00 Q1020 GRN GRN TEMPO WHT
  • 211720Z 10007KT 8000 OVC008 02/00 Q1019 GRN GRN TEMPO WHT

TAF TAF ETHF
Valid from the 21 at 18:00 until the 22 at 03:00 UTC


211720Z 2118/2203 07005KT 8000 NSW BKN012
TEMPO 2118/2203 07007KT 4000 BR BKN007
No reported NOTAMs for that airfield.



MET'MAP, your aeronautical weather chart ! - Copyright ORBIFLY December 2007 - Disclaimer

ORBIFLY MET'MAP TEAM :

Programming & Development : Alexandra Zaïnal
Concept & Development : Baudouin d'Aumeries
Co-Development & Prog : Marc-Olivier Méhu
Technical & hardware support : Manuel Goepfert

Contact : metmap@orbifly.com




SOURCES & CREDITS :

   NOAA